EW2795 Weather Reports


Display with metric or nautical units.
time (UTC)temp
F
wind
direction
speed
MPH
gust
MPH
rain 1hr
in
rain 24hr
in
rain mn
in
humidity
%
barometer
mb
20260510063013 62 253 3.0 0.0 0.00 0.00 0.00 74 1007.3
20260510061510 62 269 4.0 0.0 0.00 0.00 0.00 74 1007.3
20260510060051 62 236 4.0 0.0 0.00 0.00 0.00 74 1007.2
20260510054543 61 225 3.0 0.0 0.00 0.00 0.00 76 1007.2
20260510053034 60 182 3.0 0.0 0.00 0.00 0.00 77 1006.9
20260510051525 61 215 2.0 0.0 0.00 0.00 0.00 74 1006.7
20260510050013 61 203 2.0 0.0 0.00 0.00 0.00 73 1006.6
20260510044505 62 244 2.0 0.0 0.00 0.00 0.00 72 1006.6
20260510043053 62 238 2.0 0.0 0.00 0.00 0.00 71 1006.6
20260510041538 63 281 3.0 0.0 0.00 0.00 0.00 71 1006.7
20260510040027 63 240 2.0 0.0 0.00 0.00 0.00 71 1006.4
20260510034518 62 250 3.0 0.0 0.00 0.00 0.06 72 1006.1
20260510033008 62 222 3.0 0.0 0.00 0.00 0.06 71 1005.8
20260510031508 62 211 3.0 0.0 0.00 0.00 0.06 71 1005.8
20260510030059 63 214 2.0 0.0 0.00 0.00 0.06 70 1005.8
20260510024523 63 226 3.0 0.0 0.00 0.00 0.06 69 1006.0
20260510023017 63 215 3.0 0.0 0.00 0.00 0.06 69 1005.8
20260510021646 64 221 3.0 0.0 0.00 0.00 0.06 68 1005.6
20260510021505 64 220 3.0 0.0 0.00 0.00 0.06 68 1005.6
20260510020100 64 214 3.0 0.0 0.00 0.00 0.06 67 1005.5
20260510014556 65 221 4.0 0.0 0.00 0.00 0.06 67 1005.2
20260510013051 66 215 3.0 0.0 0.00 0.00 0.06 65 1004.9
20260510011538 66 242 3.0 0.0 0.00 0.00 0.06 65 1004.7
20260510010034 66 216 4.0 0.0 0.00 0.00 0.06 65 1004.5
20260510004515 67 218 4.0 0.0 0.00 0.00 0.06 63 1004.5
20260510003006 67 219 3.0 0.0 0.00 0.00 0.06 63 1004.3
20260510001506 67 228 4.0 0.0 0.00 0.00 0.06 63 1004.1
20260510000005 67 231 5.0 0.0 0.00 0.00 0.06 62 1003.9
20260509234554 68 220 6.0 0.0 0.00 0.00 0.06 61 1003.8
20260509233050 68 199 7.0 0.0 0.00 0.00 0.06 60 1003.8
20260509231533 69 194 7.0 0.0 0.00 0.00 0.06 58 1003.6
20260509230036 70 221 7.0 0.0 0.00 0.00 0.06 56 1003.6
20260509224525 70 200 8.0 0.0 0.00 0.00 0.06 55 1003.4
20260509223010 70 252 11.0 0.0 0.00 0.00 0.06 55 1003.4
20260509221510 71 213 9.0 0.0 0.00 0.00 0.06 57 1003.3
20260509220100 70 202 11.0 0.0 0.00 0.00 0.06 57 1003.4
20260509220003 70 246 11.0 0.0 0.00 0.00 0.06 57 1003.4
20260509214554 70 241 11.0 0.0 0.00 0.00 0.06 59 1003.3
20260509213055 70 196 12.0 0.0 0.00 0.00 0.06 56 1003.4
20260509211531 70 222 11.0 0.0 0.00 0.00 0.06 57 1003.5
20260509210020 70 223 11.0 0.0 0.00 0.00 0.06 59 1003.6
20260509204557 70 194 9.0 0.0 0.00 0.00 0.06 60 1003.6
20260509203045 70 237 12.0 0.0 0.00 0.00 0.06 60 1004.0
20260509201537 70 219 10.0 0.0 0.00 0.00 0.06 61 1004.1
20260509200021 69 234 10.0 0.0 0.00 0.00 0.06 60 1004.3
20260509194525 70 231 9.0 0.0 0.00 0.00 0.06 62 1004.4
20260509193059 69 199 10.0 0.0 0.00 0.00 0.06 61 1004.5
20260509193005 69 236 9.0 0.0 0.00 0.00 0.06 63 1004.4
20260509191605 68 192 9.0 0.0 0.00 0.00 0.06 64 1004.7
20260509190048 68 165 10.0 0.0 0.00 0.00 0.06 63 1004.7
20260509184537 68 215 8.0 0.0 0.00 0.00 0.06 64 1004.8
20260509183025 67 209 11.0 0.0 0.00 0.00 0.06 65 1005.0
20260509181521 67 200 9.0 0.0 0.00 0.00 0.06 67 1005.0
20260509180017 66 226 8.0 0.0 0.00 0.00 0.06 69 1005.2
20260509174557 66 221 10.0 0.0 0.00 0.00 0.06 71 1005.4
20260509174501 65 257 10.0 0.0 0.00 0.00 0.06 72 1005.4
20260509173057 65 205 9.0 0.0 0.00 0.00 0.06 73 1005.4
20260509171538 64 215 9.0 0.0 0.00 0.00 0.06 72 1005.6
20260509170025 64 210 9.0 0.0 0.00 0.00 0.06 77 1005.7
20260509164522 64 174 8.0 0.0 0.00 0.00 0.06 78 1005.6
20260509163003 63 202 7.0 0.0 0.00 0.00 0.06 77 1005.5
20260509161600 62 226 8.0 0.0 0.00 0.00 0.06 80 1005.5
20260509160039 62 218 6.0 0.0 0.00 0.00 0.06 79 1005.5
20260509154529 62 232 6.0 0.0 0.00 0.00 0.06 82 1005.4
20260509153027 60 213 4.0 0.0 0.00 0.00 0.06 85 1005.7
20260509151556 58 252 3.0 0.0 0.00 0.00 0.06 87 1005.9
20260509150050 58 226 4.0 0.0 0.00 0.00 0.06 88 1005.9
20260509144544 57 214 5.0 0.0 0.00 0.00 0.06 89 1005.7
20260509143028 57 236 6.0 0.0 0.00 0.00 0.06 91 1005.6
20260509141508 56 219 5.0 0.0 0.00 0.00 0.06 92 1005.7
20260509140005 55 196 4.0 0.0 0.00 0.00 0.06 92 1005.8
20260509134557 55 221 4.0 0.0 0.00 0.00 0.06 93 1005.9
20260509134505 55 218 5.0 0.0 0.00 0.00 0.06 93 1005.9
20260509133050 55 195 4.0 0.0 0.00 0.00 0.06 93 1005.8
20260509131538 54 217 4.0 0.0 0.00 0.00 0.06 94 1005.8
20260509130028 54 218 4.0 0.0 0.00 0.00 0.06 94 1005.8
20260509124518 54 221 5.0 0.0 0.00 0.00 0.06 95 1006.0
20260509123055 53 203 3.0 0.0 0.00 0.00 0.06 94 1006.1
20260509121551 53 209 3.0 0.0 0.00 0.00 0.06 94 1006.1
20260509120053 53 222 3.0 0.0 0.00 0.00 0.06 94 1006.0
20260509114538 53 220 4.0 0.0 0.00 0.00 0.06 94 1005.8
20260509113035 53 209 5.0 0.0 0.00 0.00 0.06 94 1005.9
20260509111524 53 199 4.0 0.0 0.00 0.00 0.06 94 1005.9
20260509110016 53 216 5.0 0.0 0.00 0.00 0.06 94 1005.9
20260509104514 53 208 5.0 0.0 0.00 0.00 0.06 95 1005.7
20260509103005 53 217 6.0 0.0 0.00 0.00 0.06 95 1005.6
20260509101615 53 209 5.0 0.0 0.00 0.00 0.06 95 1005.6
20260509100055 53 198 4.0 0.0 0.00 0.00 0.06 95 1005.5
20260509094555 53 205 4.0 0.0 0.00 0.00 0.06 95 1005.4
20260509093044 53 198 3.0 0.0 0.00 0.00 0.06 95 1005.6
20260509091546 53 199 3.0 0.0 0.00 0.00 0.06 95 1005.6
20260509090035 53 207 3.0 0.0 0.00 0.00 0.06 95 1005.6
20260509084512 53 196 3.0 0.0 0.00 0.00 0.06 95 1005.7
20260509083003 53 186 3.0 0.0 0.00 0.00 0.05 95 1005.7
20260509081552 53 199 1.0 0.0 0.00 0.00 0.05 94 1006.0
20260509080046 53 214 4.0 0.0 0.00 0.00 0.05 94 1006.2
20260509074536 53 217 3.0 0.0 0.00 0.00 0.03 94 1006.3
20260509073031 53 205 3.0 0.0 0.00 0.00 0.03 93 1006.3
20260509071504 53 205 3.0 0.0 0.00 0.00 0.01 92 1006.4
20260509070051 53 211 3.0 0.0 0.00 0.00 0.00 92 1006.6
20260509064544 53 209 3.0 0.0 0.00 0.00 0.00 92 1006.4